This is the latest recevied weather packets stored in our database for station/object K4KMJ. If no packets are shown the sender has not sent any weather packets the latest 10 day(s).
| Time | Temp. | Humidity | Pressure | Rain* | Wind** | Luminosity | Snow |
|---|---|---|---|---|---|---|---|
| 1777724266 | 22.78° C | 99% | 1012.4 hPa | 0 mm | - | 110 W/m² | - |
| 1777723963 | 22.78° C | 99% | 1012.4 hPa | 0 mm | - | 133 W/m² | - |
| 1777723659 | 22.78° C | 99% | 1012.5 hPa | 0 mm | - | 173 W/m² | - |
| 1777723356 | 22.22° C | 99% | 1012.4 hPa | 0 mm | - | 106 W/m² | - |
| 1777723054 | 21.67° C | 99% | 1012.4 hPa | 0 mm | - | 90 W/m² | - |
| 1777722751 | 21.67° C | 99% | 1012.2 hPa | 0 mm | - | 94 W/m² | - |
| 1777722446 | 21.11° C | 99% | 1012.5 hPa | 0 mm | - | 69 W/m² | - |
| 1777722144 | 21.11° C | 99% | 1012.2 hPa | 0 mm | - | 50 W/m² | - |
| 1777721841 | 21.11° C | 99% | 1012.3 hPa | 0 mm | - | 44 W/m² | - |
| 1777721539 | 21.11° C | 99% | 1012.3 hPa | 0 mm | - | 39 W/m² | - |
| 1777721237 | 21.11° C | 99% | 1012.2 hPa | 0 mm | - | 35 W/m² | - |
| 1777720934 | 21.11° C | 99% | 1012 hPa | 0 mm | - | 34 W/m² | - |
| 1777720631 | 20.56° C | 99% | 1012 hPa | 0 mm | - | 30 W/m² | - |
| 1777720329 | 20.56° C | 99% | 1011.8 hPa | 0 mm | - | 22 W/m² | - |
| 1777720026 | 20.56° C | 99% | 1011.7 hPa | 0 mm | - | 14 W/m² | - |
| 1777719723 | 20.56° C | 99% | 1011.8 hPa | 0 mm | - | 11 W/m² | - |
| 1777719421 | 20.56° C | 99% | 1011.7 hPa | 0 mm | - | 8 W/m² | - |
| 1777719117 | 20.56° C | 99% | 1011.5 hPa | 0 mm | - | 6 W/m² | - |
| 1777718815 | 20.56° C | 99% | 1011.3 hPa | 0 mm | - | 4 W/m² | - |
| 1777718512 | 20.56° C | 99% | 1011.2 hPa | 0 mm | - | 2 W/m² | - |
| 1777718210 | 20.56° C | 99% | 1011.4 hPa | 0 mm | - | 1 W/m² | - |
| 1777717907 | 20.56° C | 99% | 1011.4 hPa | 0 mm | - | 0 W/m² | - |
| 1777717604 | 20° C | 99% | 1011.3 hPa | 0 mm | - | 0 W/m² | - |
| 1777717301 | 20° C | 99% | 1011.4 hPa | 0 mm | - | 0 W/m² | - |
| 1777716999 | 20.56° C | 99% | 1011.5 hPa | 0 mm | - | 0 W/m² | - |
* Rain latest hour (hover to see other rain measurements)
** Current wind speed in m/s (hover to see current wind gust speed)